Location: Laterina
(43.5167°N, 11.7167°E)
Time: 16:11:12
(UTC+00:00)

MOS 1 Rocket - Pass Details

Date: 24 September 2020
Orbit: 614 x 831 km, 97.4° (Epoch: 25 October)

Event Time Altitude Azimuth Distance (km) Brightness Sun altitude
Rises 18:57:19 0° 5° (N) 2,955 6.7 -20.6°
Reaches altitude 10° 18:59:39 10° 357° (N) 2,020 6.0 -21.0°
Maximum altitude 19:03:43 39° 289° (WNW) 930 4.5 -21.7°
Drops below altitude 10° 19:07:41 10° 220° (SW) 1,969 5.8 -22.4°
Sets 19:09:56 0° 213° (SSW) 2,870 6.6 -22.8°
